{"data":{"norad_id":63078,"epoch":"2026-09-21T07:50:08.412000Z","epoch_age_seconds":90900,"freshness":"FRESH","line1":"1 63078U 25037B   26264.32648625  .00019398  00000+0  67718-3 0  9998","line2":"2 63078  69.9998 218.9101 0003284 279.3687  80.7116 15.29594589 87945","mean_motion":15.29594589,"eccentricity":0.0003284,"inclination_deg":69.9998,"raan_deg":218.9101,"arg_perigee_deg":279.3687,"mean_anomaly_deg":80.7116,"bstar":0.00067718,"rev_number":8794,"period_min":94.142592446109,"perigee_km":474.77207908612,"apogee_km":479.27454838018,"semimajor_km":6855.1603137332,"source":"CELESTRAK","updated_at":"2026-09-22T09:00:49.756794Z"}}